Regional Weather Roundup
Issued by NWS Jackson, KY

Home | Current Version | Previous Version | Graphics & Text | Print | Product List | Glossary On
Versions: 1 2 3 4 5 6 7 8 9 10 11 12 13 14 15 16 17 18 19 20 21 22 23 24 25 26 27 28 29 30 31 32 33 34 35 36 37 38 39 40 41 42 43 44 45 46 47 48 49 50
000
ASUS43 KJKL 231405
RWRJKL

EAST KENTUCKY HOURLY WEATHER ROUNDUP
NATIONAL WEATHER SERVICE JACKSON KY
900 AM EST SUN NOV 23 2014

NOTE: "FAIR" INDICATES FEW OR NO CLOUDS BELOW 12,000 FEET WITH
NO SIGNIFICANT WEATHER AND/OR OBSTRUCTIONS TO VISIBILITY.

* THESE REPORTS ARE NOT UNDER NWS QUALITY CONTROL AND MAY NOT
  REPORT WEATHER SUCH AS PRECIPITATION AND FOG.

KYZ079-080-083-085-087-088-110-112-115-119-120-231500
...EASTERN KENTUCKY...

CITY           SKY/WX    TMP DP  RH WIND       PRES   REMARKS
JACKSON        CLOUDY    50  34  54 E5        30.01F
LONDON         CLOUDY    52  36  54 E5        29.98F
SOMERSET*      CLOUDY    50  37  62 E5        29.98F
MONTICELLO*    PTSUNNY   54  42  63 E7        29.98F
MIDDLESBORO*   CLOUDY    52  39  61 SE5       30.03F
HARLAN APT*    CLOUDY    54  39  58 E8G23     30.03F
BIG SANDY*     CLOUDY    54  39  57 SE6       30.04F
MOREHEAD APT*  PTSUNNY   52  34  50 VRB5      30.03F
$$

KYZ035-036-041-042-044-050-067-078-099-231500
...CENTRAL KENTUCKY...

CITY           SKY/WX    TMP DP  RH WIND       PRES   REMARKS
MT STERLING*   CLOUDY    54  37  54 S10       30.00F
FLEMING/MASON* PTSUNNY   51  38  61 SE6       30.01F
DANVILLE*      LGT RAIN  50  41  71 S8        29.98F
RICHMOND*      CLOUDY    54  37  54 SE8       29.98F
LEXINGTON      CLOUDY    52  39  61 SE10      29.97F
FRANKFORT      CLOUDY    51  38  60 SE6       29.95F
$$

KYZ091>093-OHZ055-061-077-WVZ005-015-034-035-042-231500
...SOUTHERN OHIO/WEST VIRGINIA...

CITY           SKY/WX    TMP DP  RH WIND       PRES   REMARKS
COVINGTON      CLOUDY    51  39  63 SE8       29.97F
COLUMBUS       PTSUNNY   48  35  60 SE6       30.02R
DAYTON         PTSUNNY   52  40  63 S9        29.97F
WILMINGTON     CLOUDY    51  38  60 S12       29.98F
HUNTINGTON     PTSUNNY   49  34  56 E5        30.03F
CHARLESTON     PTSUNNY   45  32  60 CALM      30.07F
PINEVILLE*     CLOUDY    40  35  81 MISG      30.16S
BECKLEY        CLOUDY    46  28  49 SE6       30.12F
BLUEFIELD      CLOUDY    49  36  61 S13G21    30.14F
$$

VAZ002-007-008-TNZ017-027-036-066-071-231500
...SOUTHWEST VIRGINIA/EAST TENNESSEE...

CITY           SKY/WX    TMP DP  RH WIND       PRES   REMARKS
WISE*          CLOUDY    52  37  58 SE10G17   30.08F
JONESVILLE*    CLOUDY    48  39  71 E7        30.07F
ABINGDON*      CLOUDY    48  36  61 E8        30.10F
BRISTOL        CLOUDY    41  35  79 CALM      30.09F
KNOXVILLE      PTSUNNY   47  34  60 N3        30.01F
OAK RIDGE      CLOUDY    47  38  71 CALM      30.02F
CROSSVILLE     CLOUDY    55  46  71 SE13      29.96F
NASHVILLE      CLOUDY    57  48  72 SE9       29.87F
$$

...KEY TO REMARKS...
VSB - VISIBILITY IN MILES
WCI - WIND CHILL INDEX
HX  - HEAT INDEX

$$



USA.gov is the U.S. government's official web portal to all federal, state and local government web resources and services.